Home > Weather > Oceanside > Past weeks

Flag for USA Past Weather in Oceanside, California, USA — Yesterday and Last 2 Weeks

Now
62 °F

Overcast.


Feels Like: 62 °F
Forecast: 59 / 69 °F
Wind: No wind

Location: Oceanside Weather Reporting Station

Current Time: May 28, 2016 at 1:13:03 AM

Latest Report: May 27, 2016 at 11:52 PM


Visibility: 10 mi

Pressure: 29.88 "Hg

Humidity: 75%

Dew Point: 54 °F

Location of OceansideLocation

Past Weather in Oceanside — Graph

°F

Oceanside Temperature Yesterday

Maximum temperature yesterday: 69 °F (at 1:03 PM)
Minimum temperature yesterday: 61 °F (at 2:52 AM)
Average temperature yesterday: 64 °F

High & Low Weather Summary for the Past Weeks

 TemperatureHumidityPressure
High71 °F (May 18, 2:01 PM)87% (May 19, 3:52 AM)30.09 "Hg (May 19, 3:52 AM)
Low49 °F (May 23, 3:52 AM)45% (May 21, 1:52 PM)29.84 "Hg (May 19, 5:52 PM)
Average63 °F68%29.96 "Hg
* Reported May 12 10:52 PM — May 27 10:52 PM, Oceanside, Weather by CustomWeather, © 2016

Note: Actual official high and low records may vary slightly from our data, if they occured in-between our weather recording intervals... More about our weather records

Advertising

Oceanside Weather History for the Previous 24 Hours

Scroll right to see more
 ConditionsComfort  
Time TempWeatherWind HumidityBarometerVisibility
10:52 PM
Fri, May 27
62 °FOvercast.No wind75%29.88 "Hg10 mi
9:52 PM62 °FOvercast.No wind75%29.88 "Hg10 mi
8:52 PM62 °FOvercast.5 mph75%29.88 "Hg10 mi
7:52 PM63 °FOvercast.3 mph73%29.88 "Hg9 mi
6:52 PM64 °FOvercast.7 mph70%29.87 "Hg10 mi
5:52 PM64 °FOvercast.10 mph70%29.86 "Hg10 mi
4:52 PM66 °FPassing clouds.12 mph65%29.86 "Hg10 mi
3:52 PM69 °FSunny.12 mph59%29.85 "Hg10 mi
2:52 PM68 °FSunny.12 mph61%29.86 "Hg10 mi
1:52 PM69 °FSunny.10 mph61%29.87 "Hg10 mi
1:03 PM69 °FScattered clouds.9 mph61%29.90 "Hg10 mi
12:52 PM68 °FPartly sunny.10 mph63%29.90 "Hg10 mi
11:52 AM68 °FOvercast.12 mph63%29.91 "Hg10 mi
10:52 AM66 °FOvercast.8 mph68%29.92 "Hg10 mi
9:52 AM65 °FOvercast.5 mph70%29.93 "Hg10 mi
8:52 AM63 °FOvercast.7 mph75%29.94 "Hg9 mi
7:52 AM64 °FOvercast.5 mph68%29.93 "Hg10 mi
6:52 AM63 °FOvercast.7 mph70%29.93 "Hg10 mi
5:52 AM61 °FOvercast.3 mph78%29.94 "Hg10 mi
4:52 AM61 °FOvercast.No wind75%29.94 "Hg10 mi
3:52 AM61 °FOvercast.No wind75%29.94 "Hg10 mi
2:52 AM61 °FOvercast.3 mph75%29.95 "Hg10 mi
1:52 AM62 °FOvercast.No wind75%29.97 "Hg10 mi
Weather by CustomWeather, © 2016

See weather overviewHow to use our weather pages